STARLINK35434

导读 | 豆包AI

STARLINK-35434是美国于2025年10月29日发射的星链卫星,归属于SpaceX公司的星链星座项目。星链项目旨在构建全球卫星互联网星座,为全球各地提供高速低延迟的宽带互联网服务,该卫星入轨后将参与组网,进一步扩展星链星座的覆盖范围与服务能力。

基本信息
目录编号:
66246
目录名称:
STARLINK-35434
国际标识:
2025-245N
轨道中心:
EARTH
卫星名称:
STARLINK-35434
卫星全名:
STARLINK35434
卫星状态:
在轨 (已飞行208 天)
发射日期:
2025-10-29 UTC
国别 :
美国 (US)
星等 :
--
轨道信息
数据来源 国际轨道数据
星历时间: 2026-05-25T03:36:59+0800
15小时前
查看轨道信息
半长轴: 6848.87km
偏心率: 0.0001123
轨道倾角: 53.160°
近地点辐角 81.754°
升交点赤经 290.174°
平近点角 278.359°
近地点: 469.963km
远地点: 471.503km
周期: 94.013分钟
每日圈数: 15.317025
详细信息
使用方式:
暂无
2D轨道图
3D轨道图
轨道高度分析图
轨道倾角分析图
轨道综合分析图
查看轨道综合分析图